Weather in Gora-Valday

Russia / Saint-Petersburg and Leningrad Oblast     59°58′06″N   29°12′12″E
temp.,
°C
wind,
m/s
gust,
m/s
humid.,
%
clouds,
%
prec.,
mm/h
press.,
hPa
HPBL,
m
26 july, mon
mon2600:00+18wsw3470100 0.0 101956
03:00+18sw4568100 0.0 102093
06:00+18sw5674100 0.0 1020138
09:00+20wsw57677 0.0 1020232
12:00+20w67715 0.0 1021384
15:00+20w567311 0.0 1020242
18:00+21wnw45705 0.0 1020177
21:00+20nw22755 0.0 102012
27 july, tue
tue2700:00+19ssw11720 0.0 102011
03:00+19sse11695 0.0 102015
06:00+19se23695 0.0 102039
09:00+21e12655 0.0 1020141
12:00+22ne33615 0.0 1019610
15:00+23nne335614 0.0 1018246
18:00+25n335040 0.0 1016135
21:00+23ene445488 0.0 101517
28 july, wed
wed2800:00+21sse346474 0.0 101436
03:00+19ese456840 0.0 101461
06:00+19ese577083 0.0 1012106
09:00+21e6864100 0.0 1010166
12:00+23ese4660100 0.0 1008292
15:00+23se4562100 0.1 1007345
18:00+20sse61181100 1.2 1006305
21:00+19sse5894100 2.3 1005246
29 july, thu
thu2900:00+18s5995100 1.3 1004282
03:00+18sw610953 1.4 1003302
06:00+18ssw710931 0.0 1002349
09:00+20sw8118174 0.0 1001554
12:00+21sw697456 0.3 1001489
15:00+20sw9128076 3.1 1000543
18:00+18wsw91584100 2.4 1000741
21:00+19wsw10157970 3.1 1000955
30 july, fri
fri3000:00+18sw10148428 0.8 1000919
03:00+17sw1115832 1.3 999903
06:00+17sw1014835 0.1 999857
09:00+18wsw1115724 0.3 10001208
12:00+19wsw11156610 0.3 10011481
15:00+19w8126913 0.4 10011027
18:00+19w68715 0.0 1001448
21:00+18wsw34750 0.0 1000147